This is the latest recevied weather packets stored in our database for station/object W7PLC. If no packets are shown the sender has not sent any weather packets the latest 10 day(s).
| Time | Temp. | Humidity | Pressure | Rain* | Wind** | Luminosity | Snow |
|---|---|---|---|---|---|---|---|
| 1777848980 | 31.67° C | 35% | 1008.6 hPa | 0 mm | - | 707 W/m² | - |
| 1777848679 | 31.11° C | 35% | 1008.6 hPa | 0 mm | - | 730 W/m² | - |
| 1777848377 | 32.22° C | 34% | 1008.5 hPa | 0 mm | - | 703 W/m² | - |
| 1777848075 | 31.67° C | 34% | 1008.6 hPa | 0 mm | - | 666 W/m² | - |
| 1777847773 | 30.56° C | 37% | 1008.7 hPa | 0 mm | - | 687 W/m² | - |
| 1777847468 | 30° C | 37% | 1008.6 hPa | 0 mm | - | 683 W/m² | - |
| 1777847166 | 30° C | 39% | 1008.6 hPa | 0 mm | - | 714 W/m² | - |
| 1777846864 | 29.44° C | 38% | 1008.9 hPa | 0 mm | - | 678 W/m² | - |
| 1777846562 | 30.56° C | 36% | 1008.8 hPa | 0 mm | - | 750 W/m² | - |
| 1777846259 | 30.56° C | 37% | 1009 hPa | 0 mm | - | 703 W/m² | - |
| 1777845955 | 28.89° C | 38% | 1008.9 hPa | 0 mm | - | 704 W/m² | - |
| 1777845652 | 28.89° C | 38% | 1009 hPa | 0 mm | - | 682 W/m² | - |
| 1777845349 | 29.44° C | 39% | 1009.4 hPa | 0 mm | - | 663 W/m² | - |
| 1777845046 | 30° C | 39% | 1009.3 hPa | 0 mm | - | 640 W/m² | - |
| 1777844744 | 29.44° C | 40% | 1009.3 hPa | 0 mm | - | 522 W/m² | - |
| 1777844440 | 28.33° C | 41% | 1009.5 hPa | 0 mm | - | 645 W/m² | - |
| 1777844139 | 30° C | 39% | 1009.4 hPa | 0 mm | - | 745 W/m² | - |
| 1777843836 | 30° C | 38% | 1009.7 hPa | 0 mm | - | 653 W/m² | - |
| 1777843533 | 30° C | 39% | 1009.5 hPa | 0 mm | - | 631 W/m² | - |
| 1777843230 | 29.44° C | 39% | 1009.6 hPa | 0 mm | - | 670 W/m² | - |
| 1777842927 | 30° C | 38% | 1009.8 hPa | 0 mm | - | 657 W/m² | - |
| 1777842623 | 28.89° C | 40% | 1009.7 hPa | 0 mm | - | 629 W/m² | - |
| 1777842320 | 28.89° C | 41% | 1009.7 hPa | 0 mm | - | 680 W/m² | - |
| 1777842015 | 29.44° C | 40% | 1009.7 hPa | 0 mm | - | 707 W/m² | - |
| 1777841712 | 29.44° C | 40% | 1010 hPa | 0 mm | - | 695 W/m² | - |
* Rain latest hour (hover to see other rain measurements)
** Current wind speed in m/s (hover to see current wind gust speed)